Flag for U.S.A. Weather past 2 weeks in Abilene, Texas, U.S.A.

Now
78 °F

Sunny.


Feels Like: 80 °F
Forecast: 74 / 95 °F
Wind: 7 mph from South

Location: Abilene Regional Airport

Current Time: Jul 22, 2014 at 8:32:44 AM

Latest Report: Jul 22, 2014 at 7:52 AM


Visibility: 8 mi

Pressure: 30.01 "Hg

Humidity: 79%

Dew point: 71 °F

Location of AbileneLocation

Historic Weather in Abilene — Graph

°F

Abilene temperature yesterday

Maximum temperature yesterday: 96 °F (at 3:52 PM)
Minimum temperature yesterday: 77 °F (at 5:52 AM)
Average temperature yesterday: 86 °F

Past Weeks' High & Low Weather Summary

 TemperatureHumidityPressure
High100 °F (Jul 14, 4:52 PM)100% (Jul 17, 9:02 AM)30.11 "Hg (Jul 17, 9:02 AM)
Low65 °F (Jul 19, 3:52 AM)16% (Jul 12, 3:52 PM)29.78 "Hg (Jul 17, 3:52 AM)
Average82 °F56%29.95 "Hg
* Reported Jul 7 6:52 AM — Jul 22 6:52 AM, Abilene, Weather by CustomWeather, © 2014

Note: Actual official high and low records may vary slightly from our data, if they occured in-between our weather recording intervals... More about our weather records

Advertising

Abilene weather history for previous 24 hours

 ConditionsComfort  
Time TempWeatherWind HumidityBarometerVisibility
6:52 AM
Jul 22
76 °FClear.7 mph82%29.99 "Hg10 mi
5:52 AM77 °FClear.7 mph77%29.97 "Hg10 mi
4:52 AM78 °FClear.10 mph74%29.96 "Hg10 mi
3:52 AM79 °FClear.10 mph72%29.95 "Hg10 mi
2:52 AM79 °FClear.10 mph72%29.96 "Hg10 mi
1:52 AM79 °FClear.8 mph72%29.97 "Hg10 mi
12:52 AM80 °FClear.10 mph69%29.99 "Hg10 mi
11:52 PM
Jul 21
81 °FClear.8 mph67%29.98 "Hg10 mi
10:52 PM81 °FClear.6 mph67%29.95 "Hg10 mi
9:52 PM85 °FClear.8 mph57%29.92 "Hg10 mi
8:52 PM88 °FSunny.7 mph50%29.91 "Hg10 mi
7:52 PM92 °FPassing clouds.9 mph44%29.90 "Hg10 mi
6:52 PM94 °FPassing clouds.10 mph41%29.89 "Hg10 mi
5:52 PM95 °FScattered clouds.14 mph40%29.90 "Hg10 mi
4:52 PM96 °FPassing clouds.13 mph37%29.90 "Hg10 mi
3:52 PM96 °FSunny.13 mph37%29.92 "Hg10 mi
2:52 PM95 °FScattered clouds.14 mph40%29.94 "Hg10 mi
1:52 PM94 °FPassing clouds.10 mph46%29.96 "Hg10 mi
12:52 PM91 °FScattered clouds.7 mph54%29.97 "Hg10 mi
11:52 AM90 °FPassing clouds.8 mph57%29.98 "Hg10 mi
10:52 AM87 °FSunny.10 mph65%29.98 "Hg9 mi
9:52 AM84 °FSunny.14 mph72%29.98 "Hg8 mi
8:52 AM81 °FSunny.9 mph77%29.97 "Hg7 mi
Weather by CustomWeather, © 2014

See weather overviewHow to use our weather pages